EW7144 Weather Reports


time (UTC)temp
F
wind
direction
speed
knots
gust
knots
rain 1hr
in
rain 24hr
in
rain mn
in
humidity
%
barometer
mb
20210414110905 52 266 0.0 1.7 0.00 0.15 0.15 89 1007.4
20210414110525 52 267 0.9 2.6 0.00 0.15 0.15 89 1007.3
20210414110209 52 273 0.0 1.7 0.00 0.15 0.15 89 1007.4
20210414105950 52 273 1.7 2.6 0.00 0.15 0.15 89 1007.3
20210414105113 52 273 0.9 0.9 0.00 0.15 0.15 89 1007.1
20210414104411 53 273 0.0 1.7 0.00 0.15 0.15 89 1007.1
20210414103906 53 273 0.0 1.7 0.00 0.15 0.15 88 1007.0
20210414103419 53 273 0.9 0.9 0.00 0.15 0.15 88 1006.9
20210414102941 53 275 0.0 0.9 0.00 0.15 0.15 88 1006.8
20210414102815 53 275 0.0 0.9 0.00 0.15 0.15 88 1006.9
20210414102127 53 275 0.0 1.7 0.00 0.15 0.15 88 1006.9
20210414101408 53 275 0.9 1.7 0.00 0.15 0.15 88 1006.8
20210414100905 53 263 0.0 1.7 0.00 0.15 0.15 88 1006.8
20210414100412 53 267 0.9 2.6 0.00 0.15 0.15 88 1006.9
20210414095943 53 274 1.7 2.6 0.00 0.15 0.15 88 1006.9
20210414095802 53 276 0.9 2.6 0.00 0.15 0.15 88 1007.0
20210414095111 53 242 0.9 1.7 0.00 0.15 0.15 88 1007.0
20210414094412 53 205 0.0 0.9 0.00 0.15 0.15 88 1007.0
20210414093905 53 215 0.0 1.7 0.00 0.15 0.15 88 1006.9
20210414093417 53 202 0.9 1.7 0.00 0.15 0.15 88 1006.9
20210414092923 53 214 1.7 2.6 0.00 0.15 0.15 88 1006.9
20210414092754 53 210 0.9 2.6 0.00 0.15 0.15 87 1007.0
20210414092128 53 24 0.0 1.7 0.00 0.15 0.15 87 1007.1
20210414091405 54 25 0.9 1.7 0.00 0.15 0.15 87 1007.0
20210414090906 54 25 0.9 1.7 0.00 0.15 0.15 87 1006.9
20210414090408 54 24 1.7 2.6 0.00 0.15 0.15 87 1006.8
20210414085912 54 354 0.9 1.7 0.00 0.15 0.15 87 1006.9
20210414085754 54 355 0.9 1.7 0.00 0.15 0.15 87 1006.8
20210414084939 54 322 0.0 0.9 0.00 0.15 0.15 86 1006.8
20210414084418 54 328 0.0 0.9 0.00 0.15 0.15 86 1006.8
20210414083905 55 324 0.0 0.9 0.00 0.15 0.15 86 1006.8
20210414083418 54 322 1.7 2.6 0.00 0.15 0.15 85 1006.7
20210414082904 54 8 0.0 0.9 0.00 0.15 0.15 85 1006.7
20210414082710 54 8 0.9 1.7 0.00 0.15 0.15 85 1006.6
20210414082012 55 57 0.0 1.7 0.00 0.15 0.15 85 1006.6
20210414081412 54 69 0.0 0.9 0.00 0.15 0.15 85 1006.5
20210414080915 54 68 0.9 1.7 0.00 0.15 0.15 84 1006.5
20210414080417 55 51 0.0 0.9 0.00 0.15 0.15 84 1006.5
20210414075909 55 51 0.0 0.9 0.00 0.15 0.15 83 1006.4
20210414075719 55 51 0.9 1.7 0.00 0.15 0.15 82 1006.3
20210414075139 56 51 0.0 0.9 0.00 0.15 0.15 82 1006.2
20210414074419 56 51 0.0 0.9 0.00 0.15 0.15 81 1006.2
20210414073912 57 51 0.9 1.7 0.00 0.15 0.15 81 1006.0
20210414073419 57 56 0.9 2.6 0.00 0.16 0.15 80 1005.9
20210414072905 57 100 1.7 2.6 0.00 0.16 0.15 80 1005.9
20210414072819 57 121 2.6 6.1 0.00 0.16 0.15 81 1005.7
20210414072145 57 113 4.3 7.0 0.00 0.16 0.15 81 1005.6
20210414071415 57 111 5.2 7.8 0.00 0.16 0.15 81 1005.6
20210414070904 57 108 6.1 8.7 0.00 0.16 0.15 81 1005.5
20210414070414 57 101 5.2 7.8 0.00 0.16 0.15 81 1005.6
20210414070049 57 110 6.1 8.7 0.00 0.16 0.15 80 1005.5
20210414065838 57 116 5.2 7.8 0.00 0.16 0.15 80 1005.4
20210414065138 58 116 4.3 6.1 0.00 0.16 0.15 79 1005.4
20210414064405 58 116 4.3 5.2 0.00 0.16 0.15 79 1005.3
20210414063908 58 116 2.6 5.2 0.00 0.16 0.15 79 1005.4
20210414063416 58 123 1.7 2.6 0.00 0.16 0.15 78 1005.3
20210414062933 58 123 1.7 2.6 0.00 0.16 0.15 79 1005.2
20210414062738 58 114 2.6 2.6 0.00 0.16 0.15 79 1005.2
20210414061959 58 113 2.6 5.2 0.00 0.16 0.15 79 1005.2
20210414061410 59 113 2.6 5.2 0.00 0.16 0.15 79 1005.2
20210414060905 59 115 4.3 6.1 0.00 0.16 0.15 78 1005.2
20210414060448 59 108 3.5 6.1 0.00 0.16 0.15 78 1005.2
20210414060124 59 104 3.5 5.2 0.00 0.16 0.15 78 1005.1
20210414055921 60 106 2.6 2.6 0.00 0.16 0.15 77 1005.1
20210414054954 60 73 1.7 2.6 0.00 0.16 0.15 76 1005.1
20210414054420 61 62 1.7 2.6 0.00 0.16 0.15 75 1005.1
20210414053912 61 71 1.7 2.6 0.00 0.16 0.15 75 1005.0
20210414053407 62 67 1.7 2.6 0.00 0.16 0.15 75 1005.0
20210414052921 62 52 1.7 2.6 0.00 0.16 0.15 75 1004.9
20210414052822 62 33 1.7 2.6 0.00 0.16 0.15 74 1004.8
20210414052141 62 39 1.7 2.6 0.00 0.16 0.15 74 1004.7
20210414051421 62 15 1.7 2.6 0.00 0.16 0.15 74 1004.6
20210414050910 62 39 1.7 4.3 0.00 0.16 0.15 74 1004.6
20210414050432 62 26 2.6 4.3 0.00 0.16 0.15 73 1004.6
20210414050200 63 16 2.6 5.2 0.00 0.16 0.15 74 1004.7
20210414050028 63 13 1.7 4.3 0.00 0.16 0.15 73 1004.7
20210414045211 63 23 2.6 4.3 0.00 0.16 0.15 73 1004.7
20210414044421 63 7 2.6 4.3 0.00 0.16 0.15 72 1004.7
20210414043906 63 10 2.6 4.3 0.00 0.16 0.15 72 1004.7
20210414043416 64 34 1.7 2.6 0.00 0.16 0.15 70 1004.7
20210414043023 64 356 1.7 5.2 0.00 0.16 0.15 70 1004.6
20210414042838 64 26 2.6 4.3 0.00 0.16 0.15 69 1004.6
20210414042028 64 334 2.6 5.2 0.00 0.17 0.15 69 1004.6
20210414041411 64 320 1.7 6.1 0.00 0.17 0.15 68 1004.5
20210414040906 65 324 2.6 5.2 0.00 0.17 0.15 69 1004.5
20210414040556 65 264 2.6 2.6 0.00 0.17 0.15 68 1004.5
20210414040150 65 344 1.7 5.2 0.00 0.17 0.15 68 1004.5
20210414035945 65 290 2.6 6.1 0.00 0.17 0.15 66 1004.5
20210414035128 66 302 1.7 4.3 0.00 0.17 0.15 67 1004.4
20210414034411 66 312 1.7 4.3 0.00 0.17 0.15 66 1004.3
20210414033906 65 327 1.7 2.6 0.00 0.17 0.15 68 1004.3
20210414033537 65 243 0.9 2.6 0.00 0.17 0.15 67 1004.3
20210414033256 65 284 1.7 5.2 0.00 0.17 0.15 68 1004.3
20210414033058 64 119 0.0 2.6 0.00 0.17 0.15 68 1004.3
20210414032239 64 43 1.7 2.6 0.00 0.17 0.15 69 1004.3
20210414031417 63 73 0.0 2.6 0.00 0.17 0.15 71 1004.3
20210414030905 62 97 1.7 2.6 0.00 0.17 0.15 70 1004.3
20210414030415 62 122 1.7 6.1 0.00 0.17 0.15 72 1004.2
20210414030040 62 111 1.7 4.3 0.00 0.17 0.15 72 1004.2
20210414025858 61 128 2.6 6.1 0.00 0.39 0.15 71 1004.1
20210414025106 61 88 3.5 7.0 0.00 0.39 0.15 73 1004.2
20210414024422 61 105 2.6 6.1 0.00 0.39 0.15 78 1004.1
20210414023905 60 113 0.9 4.3 0.00 0.39 0.15 79 1004.0
20210414023405 59 99 4.3 7.8 0.00 0.39 0.15 78 1004.1
20210414023035 59 105 1.7 5.2 0.00 0.39 0.15 79 1004.1
20210414022843 59 128 1.7 7.0 0.00 0.39 0.15 79 1004.1
20210414022131 60 131 2.6 6.1 0.00 0.39 0.15 78 1004.1
20210414021408 61 132 2.6 6.1 0.00 0.39 0.15 77 1004.1
20210414020905 61 95 4.3 8.7 0.00 0.39 0.15 77 1004.1
20210414020416 60 87 2.6 6.1 0.00 0.39 0.15 75 1004.0
20210414015919 61 77 2.6 4.3 0.00 0.39 0.15 71 1003.9
20210414015145 61 67 1.7 5.2 0.00 0.39 0.15 71 1003.9
20210414014406 61 89 2.6 6.1 0.00 0.39 0.15 70 1003.8
20210414013907 62 73 4.3 8.7 0.00 0.39 0.15 68 1003.7
20210414013412 62 88 4.3 7.8 0.00 0.39 0.15 68 1003.7
20210414012854 62 127 3.5 8.7 0.00 0.39 0.15 68 1003.5
20210414012024 62 141 3.5 7.8 0.00 0.39 0.15 68 1003.5
20210414011414 62 99 4.3 7.8 0.00 0.39 0.15 69 1003.5
20210414010910 62 107 5.2 12.2 0.00 0.39 0.15 70 1003.5
20210414010409 63 116 4.3 10.4 0.00 0.39 0.15 70 1003.4
20210414010113 62 136 3.5 10.4 0.00 0.39 0.15 70 1003.3
20210414005345 62 109 5.2 10.4 0.00 0.39 0.15 68 1003.4
20210414004415 62 90 5.2 11.3 0.00 0.39 0.15 68 1003.3
20210414003915 63 113 3.5 13.0 0.00 0.39 0.15 68 1003.3
20210414003425 62 93 3.5 8.7 0.00 0.39 0.15 67 1003.3
20210414003031 63 98 4.3 8.7 0.00 0.39 0.15 65 1003.4
20210414002022 62 118 4.3 10.4 0.00 0.39 0.15 65 1003.4
20210414001405 62 133 5.2 11.3 0.00 0.39 0.15 65 1003.4
20210414000907 62 96 3.5 10.4 0.00 0.39 0.15 66 1003.5
20210414000417 62 123 3.5 8.7 0.00 0.39 0.15 68 1003.4
20210413235436 62 130 6.1 10.4 0.00 0.39 0.15 66 1003.3
20210413234414 62 98 4.3 10.4 0.00 0.39 0.15 66 1003.2
20210413233907 62 104 4.3 11.3 0.00 0.39 0.15 67 1003.1
20210413233421 62 108 3.5 8.7 0.00 0.39 0.15 67 1003.1
20210413232948 62 103 3.5 8.7 0.00 0.39 0.15 67 1003.1
20210413232123 62 145 2.6 8.7 0.00 0.39 0.15 67 1003.2
20210413231420 62 134 3.5 7.0 0.00 0.39 0.15 69 1003.1
20210413230904 62 158 2.6 8.7 0.00 0.39 0.15 68 1003.0
20210413230418 61 117 2.6 10.4 0.00 0.39 0.15 69 1003.0
20210413230216 61 133 5.2 12.2 0.00 0.39 0.15 68 1003.0
20210413225929 62 119 4.3 12.2 0.00 0.39 0.15 68 1002.9
20210413225433 62 133 3.5 7.8 0.00 0.39 0.15 69 1002.9
20210413224524 62 147 3.5 7.0 0.00 0.39 0.15 70 1002.8
20210413223906 62 130 2.6 6.1 0.00 0.39 0.15 71 1002.7
20210413223412 61 104 4.3 8.7 0.00 0.39 0.15 71 1002.6
20210413223047 61 105 2.6 10.4 0.00 0.39 0.15 71 1002.5
20210413222929 61 125 4.3 7.8 0.00 0.40 0.15 70 1002.4
20210413222204 61 125 2.6 7.8 0.00 0.40 0.15 73 1002.4
20210413221409 60 102 0.9 7.8 0.00 0.40 0.15 73 1002.6
20210413220910 59 127 2.6 8.7 0.00 0.40 0.15 73 1002.6
20210413220522 59 113 3.5 11.3 0.00 0.40 0.15 74 1002.6
20210413220221 59 120 5.2 13.0 0.00 0.40 0.15 75 1002.6
20210413220033 59 144 3.5 7.8 0.00 0.40 0.15 76 1002.7
20210413215220 59 148 5.2 11.3 0.00 0.40 0.15 76 1002.7
20210413214417 59 135 4.3 10.4 0.00 0.40 0.15 77 1002.6
20210413213904 58 126 6.1 11.3 0.00 0.40 0.15 78 1002.6
20210413213419 58 141 6.1 12.2 0.00 0.40 0.15 80 1002.6
20210413213036 58 81 3.5 11.3 0.00 0.40 0.15 81 1002.6
20210413212902 58 140 4.3 10.4 0.00 0.40 0.15 81 1002.7
20210413212128 58 120 5.2 10.4 0.00 0.40 0.15 81 1002.7
20210413211411 58 73 1.7 6.1 0.00 0.40 0.15 84 1002.7
20210413210912 57 101 1.7 7.0 0.00 0.40 0.15 85 1002.6
20210413210409 57 114 2.6 5.2 0.00 0.40 0.15 86 1002.5
20210413205933 56 146 3.5 7.8 0.00 0.40 0.15 86 1002.4
20210413205749 56 123 3.5 8.7 0.00 0.40 0.15 87 1002.4
20210413204955 56 158 2.6 7.8 0.00 0.40 0.15 88 1002.4
20210413204409 55 100 2.6 5.2 0.00 0.40 0.15 88 1002.3
20210413203919 54 110 1.7 6.1 0.00 0.40 0.15 89 1002.2
20210413203409 54 114 1.7 7.8 0.00 0.40 0.15 89 1002.2
20210413203111 53 139 2.6 7.0 0.00 0.40 0.15 89 1002.1
20210413202856 53 96 1.7 7.0 0.00 0.40 0.15 89 1002.2
20210413202122 53 67 0.9 2.6 0.00 0.40 0.15 89 1002.1
20210413201413 53 118 2.6 5.2 0.00 0.40 0.15 89 1002.1
20210413200915 53 104 2.6 7.8 0.00 0.40 0.15 89 1002.1
20210413200449 53 94 2.6 7.0 0.00 0.40 0.15 89 1002.1
20210413200228 52 120 4.3 7.0 0.00 0.40 0.15 89 1002.1
20210413195928 52 101 1.7 5.2 0.00 0.40 0.15 89 1002.1
20210413194906 52 117 5.2 8.7 0.00 0.40 0.15 89 1002.1
20210413194425 52 104 4.3 10.4 0.00 0.40 0.15 90 1002.0
20210413193908 52 59 4.3 10.4 0.00 0.40 0.15 90 1001.9
20210413193410 52 127 3.5 10.4 0.00 0.40 0.15 90 1001.9
20210413193113 52 107 3.5 7.8 0.00 0.40 0.15 91 1001.8
20210413192903 52 98 2.6 8.7 0.00 0.40 0.15 91 1001.7
20210413192232 52 109 3.5 10.4 0.00 0.40 0.15 91 1001.7
20210413191422 52 105 2.6 7.8 0.00 0.40 0.15 91 1001.7
20210413190910 52 99 2.6 7.0 0.00 0.40 0.15 91 1001.6
20210413190417 52 101 2.6 7.0 0.00 0.40 0.15 91 1001.6
20210413190052 52 88 2.6 7.0 0.00 0.40 0.15 90 1001.5
20210413185837 52 109 4.3 8.7 0.00 0.40 0.15 90 1001.6
20210413185121 52 98 6.1 10.4 0.00 0.40 0.15 90 1001.6
20210413184426 52 102 7.0 10.4 0.01 0.40 0.15 90 1001.6
20210413183905 52 91 5.2 8.7 0.01 0.40 0.15 91 1001.6
20210413183416 52 89 3.5 7.0 0.01 0.40 0.15 91 1001.6
20210413182942 52 96 6.1 10.4 0.01 0.40 0.15 91 1001.6
20210413182832 52 94 5.2 7.8 0.01 0.40 0.15 91 1001.7
20210413182028 52 110 5.2 7.8 0.01 0.40 0.15 91 1001.7
20210413181409 52 115 5.2 7.8 0.01 0.40 0.15 90 1001.8
20210413180916 52 103 4.3 7.8 0.01 0.40 0.15 90 1001.8
20210413180413 52 110 4.3 6.1 0.01 0.40 0.15 90 1001.8
20210413175911 52 131 2.6 4.3 0.01 0.40 0.15 90 1001.8
20210413175733 52 185 2.6 4.3 0.01 0.40 0.15 90 1001.9
20210413174941 52 137 0.9 5.2 0.01 0.40 0.15 91 1001.9
20210413174410 52 129 3.5 6.1 0.00 0.39 0.14 91 1001.9
20210413173905 53 71 2.6 7.0 0.00 0.39 0.14 91 1002.0
20210413173416 52 111 2.6 7.0 0.00 0.39 0.14 91 1001.9
20210413173025 52 117 2.6 6.1 0.00 0.39 0.14 91 1001.9
20210413172852 52 112 1.7 5.2 0.00 0.39 0.14 91 1001.9
20210413172219 52 106 4.3 7.0 0.00 0.39 0.14 91 1001.9
20210413171426 52 107 2.6 5.2 0.00 0.39 0.14 91 1001.9
20210413170906 52 104 2.6 6.1 0.00 0.39 0.14 91 1001.9
20210413170419 52 120 2.6 5.2 0.00 0.39 0.14 90 1001.9
20210413170109 52 110 4.3 7.0 0.01 0.39 0.14 90 1001.9
20210413165835 52 114 6.1 7.8 0.01 0.39 0.14 90 1001.9
20210413165107 52 115 6.1 8.7 0.01 0.39 0.14 90 1002.0
20210413164409 52 115 6.1 8.7 0.01 0.39 0.14 91 1002.1
20210413163907 52 100 6.1 7.8 0.01 0.39 0.14 91 1002.1
20210413163419 52 101 6.1 8.7 0.01 0.39 0.14 91 1002.0
20210413163146 52 109 6.1 8.7 0.01 0.39 0.14 91 1002.1
20210413162944 52 106 6.1 8.7 0.01 0.39 0.14 91 1002.2
20210413162242 52 110 4.3 7.0 0.01 0.39 0.14 91 1002.2
20210413161418 52 114 2.6 5.2 0.01 0.39 0.14 91 1002.2
20210413160905 52 139 0.9 1.7 0.01 0.39 0.14 91 1002.2
20210413160454 52 139 0.0 0.9 0.01 0.39 0.14 91 1002.1
20210413160136 52 139 0.9 1.7 0.00 0.38 0.13 91 1002.2
20210413155934 52 139 1.7 2.6 0.00 0.38 0.13 91 1002.2
20210413155222 52 143 1.7 2.6 0.00 0.38 0.13 91 1002.3
20210413154408 52 154 0.9 1.7 0.00 0.38 0.13 91 1002.4
20210413153907 52 137 0.9 2.6 0.00 0.38 0.13 91 1002.5
20210413153417 52 134 0.9 1.7 0.00 0.38 0.13 91 1002.6
20210413153056 52 126 0.9 0.9 0.00 0.38 0.13 91 1002.6
20210413152917 52 126 0.0 0.9 0.00 0.38 0.13 91 1002.6
20210413152129 52 126 1.7 2.6 0.00 0.38 0.13 91 1002.8
20210413151419 52 132 1.7 2.6 0.01 0.38 0.13 92 1002.9
20210413150906 52 141 0.9 1.7 0.01 0.38 0.13 92 1003.0
20210413150538 52 132 0.9 1.7 0.01 0.38 0.13 91 1003.1
20210413150214 52 132 0.9 2.6 0.02 0.38 0.13 91 1003.2
20210413145345 52 163 0.9 1.7 0.02 0.38 0.13 91 1003.2
20210413144432 53 171 0.9 1.7 0.03 0.38 0.13 91 1003.2
20210413143905 53 171 0.9 1.7 0.03 0.38 0.13 91 1003.3
20210413143414 53 204 0.0 2.6 0.03 0.38 0.13 91 1003.4
20210413143131 53 247 0.0 0.9 0.03 0.38 0.13 91 1003.5
20210413142917 53 175 0.0 1.7 0.03 0.38 0.13 91 1003.4
20210413141911 53 184 0.0 2.6 0.04 0.38 0.13 91 1003.6
20210413141411 53 301 0.0 1.7 0.04 0.37 0.12 91 1003.8
20210413140909 53 195 0.0 1.7 0.07 0.37 0.12 91 1003.8
20210413140415 53 218 0.0 1.7 0.11 0.37 0.12 91 1003.9
20210413140119 53 265 1.7 4.3 0.11 0.37 0.12 91 1004.0
20210413135954 53 247 1.7 7.0 0.10 0.36 0.11 91 1003.9
20210413135311 53 248 0.9 4.3 0.10 0.36 0.11 91 1003.9
20210413134415 53 161 0.9 4.3 0.09 0.35 0.10 91 1003.8
20210413133905 53 34 2.6 8.7 0.10 0.35 0.10 91 1003.8
20210413133405 53 162 1.7 5.2 0.10 0.35 0.10 91 1003.9
20210413133115 53 187 1.7 10.4 0.10 0.35 0.10 91 1004.0
20210413132911 54 159 2.6 10.4 0.10 0.35 0.10 91 1004.1
20210413132052 54 252 1.7 6.1 0.09 0.34 0.09 91 1004.1
20210413131429 54 225 1.7 17.4 0.08 0.33 0.08 91 1004.2
20210413130905 54 307 8.7 15.6 0.05 0.30 0.05 91 1004.1
20210413130409 54 243 2.6 10.4 0.01 0.26 0.01 90 1003.9
20210413130032 54 243 0.9 2.6 0.01 0.26 0.01 91 1003.0
20210413125704 54 223 0.0 2.6 0.01 0.26 0.01 91 1003.1
20210413124408 54 254 0.9 2.6 0.01 0.26 0.01 91 1003.3
20210413123914 54 349 1.7 2.6 0.00 0.25 0.00 91 1003.1
20210413123418 54 359 1.7 7.0 0.00 0.25 0.00 91 1003.0
20210413123131 53 270 0.0 0.9 0.00 0.25 0.00 91 1003.2
20210413122449 53 271 1.7 2.6 0.00 0.25 0.00 91 1003.3
20210413121421 53 222 0.0 1.7 0.00 0.25 0.00 91 1003.2
20210413120907 53 222 0.0 0.0 0.00 0.25 0.00 91 1003.2
20210413120416 53 222 0.0 0.0 0.00 0.25 0.00 91 1003.3
20210413115840 53 222 0.0 0.0 0.00 0.25 0.26 91 1003.5
20210413114414 53 222 0.0 0.0 0.00 0.26 0.26 91 1003.5
20210413113912 53 222 0.0 0.0 0.00 0.26 0.26 91 1003.6
20210413113409 53 222 0.0 0.0 0.00 0.26 0.26 91 1003.6
20210413112420 53 222 0.0 0.0 0.00 0.26 0.26 91 1003.8
20210413111427 53 222 0.0 0.0 0.00 0.26 0.26 91 1003.8